Location: Spring Creek
(38.2870°N, 100.2160°W)
Time: 12:00:47
(UTC+00:00)

Cosmos 614 Rocket - Pass Details

Date: 08 May 2021
Orbit: 733 x 764 km, 74.1° (Epoch: 22 June)

Event Time Altitude Azimuth Distance (km) Brightness Sun altitude
Rises 10:05:40 0° 335° (NNW) 3,172 7.4 -16.1°
Reaches altitude 10° 10:08:05 10° 330° (NNW) 2,248 6.5 -15.7°
Maximum altitude 10:12:58 50° 257° (WSW) 945 4.1 -15.0°
Drops below altitude 10° 10:17:52 10° 183° (S) 2,251 6.1 -14.2°
Enters shadow 10:19:43 - 178° (S) 2,958 6.7 -13.9°
